Location: Shenandoah County Park
(38.9356°N, 78.4524°W)
Time: 14:52:54
(UTC-04:00)

Tiros 1 despin weight - Visible Passes

Search period start: 23 July 2024 00:00
Search period end: 02 August 2024 00:00
Orbit: 576 x 620 km, 48.2° (Epoch: 23 July)

Date Brightness Start Highest point End Pass type
(mag) Time Alt. Az. Time Alt. Az. Time Alt. Az.
23 Jul ? 02:14:46 35° NNE 02:14:46 35° NNE 02:17:44 10° NE visible
23 Jul ? 03:51:46 10° WNW 03:55:22 24° N 03:59:00 10° NE visible
23 Jul ? 05:33:25 10° NW 05:37:23 32° NNE 05:41:24 10° E visible
24 Jul ? 02:23:54 33° N 02:23:54 33° N 02:27:39 10° NE visible
24 Jul ? 04:02:04 10° NW 04:05:39 24° N 04:09:16 10° ENE visible
25 Jul ? 00:56:24 11° NE 00:56:24 11° NE 00:56:36 10° NE visible
25 Jul ? 02:33:00 25° NNW 02:33:52 27° N 02:37:38 10° NE visible
25 Jul ? 04:12:12 10° NW 04:15:55 26° N 04:19:40 10° ENE visible
26 Jul ? 01:05:29 16° NE 01:05:29 16° NE 01:06:29 10° NE visible
26 Jul ? 02:42:05 17° NW 02:44:07 24° N 02:47:43 10° NE visible
26 Jul ? 04:22:12 10° NW 04:26:07 31° NNE 04:30:05 10° E visible
27 Jul ? 01:14:33 21° NNE 01:14:33 21° NNE 01:16:22 10° NE visible
27 Jul ? 02:51:09 12° NW 02:54:22 24° N 02:57:56 10° ENE visible
27 Jul ? 04:32:05 10° NW 04:36:15 42° NNE 04:40:27 10° E visible
28 Jul ? 01:23:37 24° NNE 01:23:37 24° NNE 01:26:17 10° NE visible
28 Jul ? 03:00:55 10° NW 03:04:35 26° N 03:08:17 10° ENE visible
28 Jul ? 04:41:56 10° NW 04:46:16 62° NNE 04:50:39 10° ESE visible
28 Jul ? 22:06:00 10° SSW 22:09:45 35° SE 22:09:45 35° SE visible
28 Jul ? 23:56:09 - NE 23:56:09 - NE 23:46:42 10° W visible
29 Jul ? 01:32:46 24° N 01:32:46 24° N 01:36:19 10° NE visible
29 Jul ? 03:10:52 10° NW 03:14:45 31° NNE 03:18:40 10° ENE visible
29 Jul ? 04:51:48 10° WNW 04:56:12 83° SSW 05:00:37 10° SE visible
29 Jul ? 22:15:27 10° SW 22:19:42 64° SE 22:23:58 10° ENE visible
29 Jul ? 23:57:03 10° W 00:01:00 34° NNW 00:01:06 34° NNW visible
30 Jul ? 01:42:21 23° N 01:42:57 24° N 01:46:30 10° ENE visible
30 Jul ? 03:20:43 10° NW 03:24:51 40° NNE 03:29:00 10° E visible
30 Jul ? 05:01:48 10° WNW 05:06:00 48° SW 05:10:16 10° SE visible
30 Jul ? 22:25:15 10° WSW 22:29:33 76° NNW 22:33:52 10° NE visible
31 Jul ? 00:07:24 10° WNW 00:11:07 27° NNW 00:12:59 20° NNE visible
31 Jul ? 01:49:30 10° NW 01:54:51 20° NE 01:56:48 10° ENE visible
31 Jul ? 03:31:48 19° NW 03:34:50 60° NNE 03:39:11 10° ESE visible
31 Jul ? 05:12:01 10° WNW 05:15:42 27° SW 05:19:26 10° SSE visible
31 Jul ? 20:54:35 10° SSW 20:58:30 34° SE 21:02:24 10° ENE visible
31 Jul ? 22:35:18 10° W 22:39:28 49° NNW 22:43:41 10° NE visible
01 Aug ? 00:17:43 10° WNW 00:21:16 24° N 00:22:23 22° NNE visible
01 Aug?02:09:17E02:09:17E01:58:59NWvisible
01 Aug ? 03:46:15 40° SE 03:46:15 40° SE 03:49:08 10° SE visible
01 Aug ? 05:23:12 11° W 05:25:18 15° SW 05:27:50 10° SSW visible
01 Aug ? 21:03:58 10° SW 21:08:13 61° SE 21:12:28 10° ENE visible
01 Aug ? 22:45:32 10° W 22:49:29 35° NNW 22:53:28 10° NE visible
